Regional Weather Roundup
Issued by NWS Charleston, SC

Current Version | Previous Version | Graphics & Text | Print | Product List | Glossary On
Versions: 1 2 3 4 5 6 7 8 9 10 11 12 13 14 15 16 17 18 19 20 21 22 23 24 25 26 27 28 29 30 31 32 33 34 35 36 37 38 39 40 41 42 43 44 45 46 47 48 49 50
000
ASUS42 KCHS 220212
RWRCHS

REGIONAL WEATHER ROUNDUP
NATIONAL WEATHER SERVICE CHARLESTON SC
1000 PM EDT SAT OCT 21 2017

NOTE: "FAIR" INDICATES FEW OR NO CLOUDS BELOW 12,000 FEET WITH NO
SIGNIFICANT WEATHER AND/OR OBSTRUCTIONS TO VISIBILITY.

NOT ALL STATIONS ARE QUALITY CONTROLLED. USE DATA WITH CAUTION...
ESPECIALLY DEWPOINT OBSERVATIONS.

SCZ027-030-031-034>040-042>050-220300-
...SOUTHEAST SOUTH CAROLINA...

CITY           SKY/WX    TMP DP  RH WIND       PRES   REMARKS
N CHARLESTON   CLOUDY    68  65  90 NE7       30.29R
WATERFRONT PRK NOT AVBL
JOHNS ISLAND   FAIR      72  66  83 NE9       30.29R
PINOPOLIS        N/A     70  66  88 E6        30.21S
MONCKS CORNER  FAIR      64  63  94 NE3       30.30S
SUMMERVILLE    FAIR      63  63 100 CALM      30.31R
BEAUFORT MCAS  PTCLDY    71  67  87 MISG      30.28R
BEAUFORT ARPT  FAIR      70  64  83 NE9       30.27S
HILTON HEAD IS PTCLDY    72  68  88 NE9       30.27S
WALTERBORO     PTCLDY    64  61  88 E3        30.30R
ALLENDALE        N/A     68  63  83 CALM        N/A

...SOUTHERN MIDLANDS AND PEE DEE...

CITY           SKY/WX    TMP DP  RH WIND       PRES   REMARKS
GEORGETOWN     FAIR      63  63 100 CALM      30.32R
KINGSTREE      FAIR      61  59  94 CALM      30.31S
ORANGEBURG     PTCLDY    64  58  80 CALM      30.30R
BARNWELL         N/A     68  59  73 CALM      30.30R
AIKEN          FAIR      59  50  72 E5        30.33S
MANNING        FAIR      63  45  51 MISG      30.31S
COLUMBIA       CLOUDY    62  59  90 CALM      30.30R
SUMTER         PTCLDY    61  54  77 CALM      30.29R
FLORENCE       CLEAR     61  56  83 CALM      30.32R
MYRTLE BEACH   PTCLDY    71  65  81 E7        30.33R
N MYRTLE BEACH PTCLDY    67  64  90 NE5       30.31S

$$

GAZ063-065-086>088-099>101-113>116-118-119-134>141-150-220300-
...SOUTHEAST GEORGIA...

CITY           SKY/WX    TMP DP  RH WIND       PRES   REMARKS
SAVANNAH ARPT  PTCLDY    69  66  90 NE6       30.27R
HUNTER AAF     PTCLDY    71  67  88 NE3       30.24R
FORT STEWART   PTCLDY    69  65  86 NE6       30.24R
STATESBORO     MOCLDY    69  60  73 CALM      30.28R
SYLVANIA       PTCLDY    68  65  91 CALM      30.29R
CLAXTON        FAIR      67  65  94 CALM      30.27S

...CSRA...CENTRAL AND FAR SOUTHEAST GEORGIA...

CITY           SKY/WX    TMP DP  RH WIND       PRES   REMARKS
THOMSON        PTCLDY    58  55  90 S3        30.33S
AUGUSTA-BUSH   MOCLDY    61  55  81 CALM      30.28S
AUGUSTA-DANIEL PTCLDY    71  51  49 E6        30.29S
SWAINSBORO     FAIR      68  61  77 MISG      30.28S
VIDALIA        PTCLDY    68  64  88 E5        30.27R
EASTMAN        FAIR      71  53  52 SE3       30.28R
HAZLEHURST     FAIR      73  59  62 E7        30.25R
ALMA           CLOUDY    70  65  84 VRB5      30.25R
WAYCROSS       CLOUDY    71  67  90 E8        30.24S
JESUP          NOT AVBL
BAXLEY         FAIR      68  68 100 E7        30.25S
BRUNSWICK      CLOUDY    72  68  88 NE5       30.24S
SAINT SIMONS   MOCLDY    76  68  76 E7        30.23R

$$

SCZ027-028-034-036>038-045-046-048>050-GAZ119-141-220300-
...LAKE AND SUPPLEMENTAL COASTAL OBSERVATIONS...

STATION/POSITION TIME  TEMP    WIND        PRES    WAVE   SWELL
                       AIR SEA DIR/SP/G            HT/PER HT/PER/DIR
                 (UTC) (F)     (DEG/KT/KT) (MB)    (FT/S) (FT/S/D)
WINYAH BAY       0045   73      70/  7     1026.0
LAKE MURRAY      0120   69      CALM  /  1 1025.1
ACE BASIN NERRS  0045   70      20/  1     1025.0
FORT PULASKI     0148           60/ 13/ 18 1024.9R
SAPELO ISLAND    NOT AVBL

$$

ANZ835-935-AMZ111-154-330-350-352-354-370-450-454-472-220300-
...C-MAN AND BUOY OBSERVATIONS...

STATION/POSITION TIME  TEMP    WIND        PRES    WAVE   SWELL
                       AIR SEA DIR/SP/G            HT/PER HT/PER/DIR
                 (UTC) (F)     (DEG/KT/KT) (MB)    (FT/S) (FT/S/D)
BUOY 41004       0150   78 80  100/ 14/ 16 1024.5R   4/ 9   3/110/ 9
BUOY 41008       0150   78 77   90/ 12/ 14 1023.4R   4/ 6   3/120/ 8
FOLLY BEACH CMAN 0100   73      40/ 14/ 15 1025.7S
CAPERS NEARSHORE 0108   71 73   70/ 12/ 17 1024.9R
FRIPP NEARSHORE  0108   75      60/ 14/ 17   N/A


STATION/POSITION TIME  TEMP    WIND        PRES    WAVE   SWELL
                       AIR SEA DIR/SP/G            HT/PER HT/PER/DIR
                 (UTC) (F)     (DEG/KT/KT) (MB)    (FT/S) (FT/S/D)
5E ST. MARYS GA  0130      77                N/A     4/ 5
FRYING PAN BUOY  0150   75 76   50/ 12/ 16 1025.8R   3/ 8   2/110/ 8
BUOY 41025       0150   73 81  350/  8/ 12 1027.2R   3/ 8   2/110/ 8
CAPE LOOKOUT NC  0100   73      50/  9/ 10 1027.0R
BUOY 41002       0150   76 80   70/ 10/ 12 1025.6R   4/ 8   3/ 90/ 8
BUOY 41010       NOT AVBL
ST AUGUSTINE FL  0200   75 78  130/ 25/ 28 1022.5R


$$




USA.gov is the U.S. government's official web portal to all federal, state and local government web resources and services.